Location: Naloco
(16.5478°S, 37.1017°E)
Time: 01:05:31
(UTC+00:00)

CZ-4 R/B - Pass Details

Date: 13 August 2020
Orbit: 531 x 599 km, 97.7° (Epoch: 23 September)

Event Time Altitude Azimuth Distance (km) Brightness Sun altitude
Exits shadow 16:43:33 20° 171° (S) 1,261 2.9 -19.8°
Maximum altitude 16:46:07 85° 257° (WSW) 540 1.2 -20.4°
Drops below altitude 10° 16:49:58 10° 347° (NNW) 1,782 4.2 -21.3°
Sets 16:52:04 0° 347° (NNW) 2,672 5.1 -21.8°
